DECAYED
Showing default

TIANZHOU 8, 61983 (Decayed)

Orbit data source: Space-Track

TIANZHOU 8, 61983 was a payload satellite owned by ZZHGB (CN) in LEO that was launched on Fri, 15 Nov 2024 UTC via a CHANG ZHENG 7 launch vehicle from the Wenchang Satellite Launch Center (WSC). Payload-class satellites include a variety of spacecraft equipped with specific instruments for various scientific and technological missions. These include communications satellites like Starlink; space stations such as the ISS; scientific satellites like the Hubble; Earth observation satellites from companies like Planet Labs, Umbra, and HawkEye 360; GPS; miniature CubeSats for education and research; and military/defense satellites.

Loading next visibility...
Identifier
61983, 2024-211A
Orbit
Decayed
Country
Flag of CNCN / PRC
Related business
Manufacturer
CAST
Mission
Decayed Civil Spaceship
Bus & Motor
TIANZHOU, Unknown motor
Mass
13,200 kg wet, 6,000 kg dry
Launch date (UTC)
2024-11-15 (10 months ago)
Launch vehicle
CHANG ZHENG 7
Launch site
Wenchang Satellite Launch Center (WSC)
Object type
Payload
Rocket body
Debris
Shape & HBR
Step Cyl + 2 Pan, 4.5 m
Radar Cross Section
25.688 m², Large (>1 m²)

Expand to show TLE details & history
Last TLE update: 2 months ago

TLE from 2 months ago
0 TIANZHOU 8
1 61983U 24211A   25206.77939449  .00019974  00000-0  27208-3 0  9996
2 61983  41.4648 146.7273 0006813 346.9724  13.0936 15.57038616237173
Epoch: 2025-07-25T18:42Z
TLE epoch observation values (Epoch: 2025-07-25T18:42:19.683Z)
Latitude
-0.00008°
Longitude
-77.58029°
Altitude
391.338 km
Speed
7.68 km/s
True Right ascension
09h 46m 54s
True Declination
0° 00' 00"
Sunlit
Object was in daylight at epoch
Visualization orbit readout
Latitude
Unknown
Longitude
Unknown
Altitude
Unknown
Speed
Unknown
Apparent Right ascension
Unknown
Apparent Declination
Unknown
Sunlit
N/A
Visualization observer readout
Local Sidereal Time
06:01:27
Azimuth
Unknown
Elevation
Unknown
Doppler factor
Unknown
Orbital elements
Apogee altitude
403.08 km
Perigee altitude
393.846 km
Semi-major axis
6,776.6 km
Eccentricity
0.00068
Inclination
41.4648°
RAAN
146.7273°
Arg. of periapsis
346.9724°
True anomaly
13.1113°
Mean anomaly
13.0936°
Eccentric anomaly
13.10245°
Mean motion
3.89068 °/min
Orbital period
92.53 mins
BSTAR
0.00027208
Loading maneuver chart data...
Computing Atmospheric mass density...
Loading historical data...
Loading historical data...
Loading historical data...
Loading historical data...
Loading historical data...
Loading historical data...
Loading historical data...

Documentation

Showing up to 5 results
|